Showing default

PERSEUS M1, 40039

Orbit data source: Space-Track

PERSEUS M1, 40039 is a payload satellite owned by Canopus Sys (CIS) in SSO that was launched on Thu, 19 Jun 2014 UTC via a DNEPR launch vehicle from the Orenburg, Russia (OREN). Payload-class satellites include a variety of spacecraft equipped with specific instruments for various scientific and technological missions. These include communications satellites like Starlink; space stations such as the ISS; scientific satellites like the Hubble; Earth observation satellites from companies like Planet Labs, Umbra, and HawkEye 360; GPS; miniature CubeSats for education and research; and military/defense satellites.

Loading next visibility...
Identifier
40039, 2014-033AF
Orbit
SSO
Last TLE update
17 hours ago
Origin
Manufacturer
Canopus Sys
Mission
Operational Commercial Communications
Bus & Motor
CUBESAT 6U, Unknown motor
Mass
~10 kg wet, ~10 kg dry
Launch date (UTC)
2014-06-19 (11 years ago)
Launch vehicle
DNEPR
Launch site
Orenburg, Russia (OREN)
Object type
Payload
Rocket body
Debris
Shape & HBR
Box, 0.1 m
Radar Cross Section
0.105 m², Medium (>0.1 m² and < 1m²)

Expand to show TLE details & history

TLE from 17 hours ago
0 PERSEUS M1
1 40039U 14033AF  25200.74763239  .00001355  00000-0  13312-3 0  9994
2 40039  97.9294 135.6228 0011131 326.3780  33.6732 14.93840643600979
Epoch: 2025-07-19T17:56Z
TLE epoch observation values (Epoch: 2025-07-19T17:56:35.438Z)
Latitude
-0.00002°
Longitude
-71.30515°
Altitude
582.563 km
Speed
7.573 km/s
True Right ascension
09h 02m 29s
True Declination
0° 00' 00"
Sunlit
Object was in daylight at epoch
Visualization orbit readout
Latitude
79.66847°
Longitude
158.84304°
Altitude
604.531 km
Speed
7.561 km/s
Apparent Right ascension
10h 59m 21s
Apparent Declination
36° 51' 06"
Sunlit
Object is in daylight
Visualization observer readout
Local Sidereal Time
23:20:22
Azimuth
4.316° NNE
Elevation
-13.08°
Doppler factor
1
Orbital elements
Apogee altitude
590.746 km
Perigee altitude
575.249 km
Semi-major axis
6,961.134 km
Eccentricity
0.00111
Inclination
97.9294°
RAAN
135.6228°
Arg. of periapsis
326.378°
True anomaly
33.744°
Mean anomaly
33.6732°
Eccentric anomaly
33.70859°
Mean motion
3.737 °/min
Orbital period
96.33 mins
BSTAR
0.00013312
Loading maneuver chart data...
Loading SW <> Apogee altitude chart data...
Loading historical data...
Loading historical data...
Loading historical data...
Loading historical data...
Loading historical data...
Loading historical data...
Loading historical data...
|